[[{"header":{"parameterUnit":"m.s-1","parameterCategory":2,"la1":30.2991,"la2":30.254,"lo1":-89.0895,"lo2":-89.0444,"dy":0.0017,"dx":0.0017,"nx":28,"ny":28,"refTime":"2024-06-05T21:00:00:Z","depth":"0","parameterNumber":2,"parameterNumberName":"U-component_of_CURRENTS"},"data":[0,0,0,0,0,0,0,0,0,0,0,0,0,0,0,0,0,0,0,0,0,0,0,0,0,0,0,0,0,0,0,0,0,0,0,0,0,0,0,0,0,0,0,0,0,0,0,0,0,0,0,0,0,0,0,0,0,0,0.4162,0.4162,0,0.4167,0.4167,0.4166,0.4132,0.4131,0.413,0.413,0.4116,0.4116,0.4116,0,0,0,0,0,0,0,0,0,0,0,0,0,0.4144,0.4144,0.4161,0.4162,0.4162,0.4167,0.4167,0.4166,0.4132,0.4131,0.413,0.4129,0.4116,0.4116,0.4116,0,0,0,0,0,0,0,0,0,0,0,0,0,0.4147,0.4144,0.4161,0.4148,0.4147,0.4167,0.4167,0.4166,0.4132,0.4131,0.413,0.4129,0.4116,0.4116,0.4116,0.414,0,0,0.4118,0.4118,0,0,0,0,0,0,0,0,0.4147,0.4148,0.4149,0.4149,0.4148,0.415,0.4155,0.4158,0.4132,0.4134,0.413,0.4129,0.4128,0.4128,0.4127,0.4139,0.4139,0.4118,0.4118,0.4118,0.4118,0,0,0,0,0,0,0,0.4147,0.4148,0.416,0.415,0.4149,0.4149,0.4148,0.4156,0.4134,0.4134,0.4132,0.4138,0.4127,0.4127,0.4126,0.4138,0.4118,0.4118,0.4118,0.4119,0.4338,0.4343,0,0,0,0,0,0,0.4153,0.4147,0.416,0.4161,0.4149,0.4151,0.4149,0.4148,0.4135,0.4133,0.4139,0.4137,0.4126,0.4126,0.4126,0.4254,0.4118,0.4119,0.4119,0.4332,0.4339,0.4345,0,0,0,0,0,0,0.4152,0.4154,0.416,0.4157,0.4158,0.4152,0.4151,0.4149,0.4154,0.4139,0.4136,0.4148,0.4126,0.4125,0.4157,0.4249,0.4119,0.4119,0.4326,0.4334,0.4342,0.4445,0,0,0,0,0,0,0.4152,0.4153,0.4157,0.4157,0.4159,0.4186,0.4152,0.415,0.416,0.4157,0.4146,0.4143,0.4125,0.4157,0.4157,0.4247,0.412,0.4319,0.433,0.434,0.4434,0.4455,0.4474,0,0,0,0,0,0.4151,0.4164,0.4157,0.4159,0.4163,0.4188,0.4189,0.4179,0.4162,0.4177,0.4176,0.4144,0.4226,0.4159,0.4159,0.4251,0.4314,0.4327,0.4339,0.4425,0.4451,0.4473,0,0,0,0,0,0,0.4155,0.4162,0.4154,0.4167,0.4182,0.4184,0.4198,0.419,0.42,0.4201,0.4175,0.4174,0.4252,0.4244,0.4171,0.4359,0.4282,0.4295,0.4348,0.4372,0.4392,0.4442,0.412,0,0,0,0,0,0.416,0.4173,0.418,0.4194,0.4204,0.4203,0.4212,0.4211,0.422,0.4222,0.4215,0.4246,0.4307,0.4325,0.436,0.443,0.445,0.451,0.4529,0.4545,0.4596,0.4712,0.4745,0.4386,0.4386,0.4386,0,0,0.4164,0.4173,0.4178,0.4197,0.4205,0.4241,0.4205,0.4234,0.4281,0.4222,0.4276,0.4298,0.4342,0.4435,0.4474,0.4433,0.4653,0.4562,0.4574,0.4617,0.4728,0.4763,0.4793,0.4395,0.4393,0.4392,0,0,0.4188,0.4191,0.4211,0.4234,0.4261,0.4276,0.4289,0.4303,0.4328,0.437,0.4386,0.4473,0.4493,0.4589,0.4631,0.479,0.4751,0.48,0.4933,0.5044,0.5074,0.51,0.5127,0.5155,0.4811,0.4811,0.4811,0,0.4193,0.4217,0.4223,0.4257,0.429,0.4297,0.4342,0.4381,0.4407,0.4469,0.4402,0.4572,0.4591,0.479,0.4854,0.4838,0.4852,0.482,0.5066,0.5093,0.5119,0.514,0.517,0.4818,0.4817,0.4816,0.4816,0,0.4229,0.4259,0.4281,0.4329,0.4371,0.4412,0.447,0.453,0.4545,0.4591,0.4748,0.4786,0.49,0.494,0.4933,0.5167,0.5098,0.5066,0.499,0.516,0.5172,0.5201,0.4827,0.4825,0.4823,0.4821,0,0,0.4206,0.4288,0.4295,0.434,0.4415,0.4456,0.4575,0.4695,0.4801,0.4845,0.4992,0.5133,0.5161,0.5222,0.5256,0.5366,0.5534,0.5296,0.5298,0.5294,0.5718,0.5549,0.5562,0.5523,0.553,0.5535,0.5635,0,0.423,0.4304,0.4351,0.4449,0.4496,0.458,0.4694,0.4818,0.4905,0.5046,0.5171,0.53,0.5269,0.5332,0.5451,0.5528,0.5624,0.5507,0.5582,0.5585,0.5391,0.5597,0.5445,0.5513,0.5663,0.5668,0.5671,0,0.4238,0.4297,0.4381,0.4528,0.4561,0.4636,0.4842,0.4947,0.5173,0.5246,0.5417,0.5479,0.5704,0.5611,0.5841,0.5754,0.5768,0.5794,0.5797,0.5637,0.5473,0.5383,0.5559,0.5456,0.5715,0.5712,0.5708,0,0.4198,0.4322,0.4394,0.4435,0.4596,0.4691,0.4801,0.5014,0.5136,0.5391,0.549,0.5718,0.5814,0.5931,0.5975,0.5923,0.6161,0.6086,0.5947,0.593,0.5823,0.5785,0.5895,0.6257,0.6257,0.6257,0.6257,0,0.4188,0.425,0.4386,0.4421,0.4552,0.4685,0.486,0.5009,0.5244,0.5401,0.5589,0.5731,0.5897,0.6023,0.606,0.6092,0.6229,0.6032,0.5989,0.5846,0.5811,0.5729,0.5666,0.626,0.626,0.6259,0.6258,0,0.4112,0.4195,0.4282,0.4457,0.452,0.4613,0.4847,0.4985,0.5214,0.5426,0.5511,0.5771,0.5925,0.6044,0.6209,0.6159,0.6071,0.6192,0.5967,0.5896,0.5621,0.5568,0.5413,0.525,0.6078,0.6075,0.6073,0,0.407,0.4105,0.4261,0.4322,0.4399,0.456,0.4679,0.493,0.5073,0.5426,0.5519,0.5746,0.5862,0.6038,0.6051,0.6099,0.5947,0.5924,0.5826,0.5647,0.5559,0.5319,0.5177,0.5711,0.5706,0.5702,0.5698,0,0.3995,0.4045,0.4116,0.423,0.4344,0.4484,0.4673,0.4771,0.5068,0.5222,0.5445,0.5577,0.5773,0.5762,0.5807,0.5818,0.5661,0.5828,0.5763,0.5407,0.5044,0.4848,0.5542,0.566,0.5664,0.5667,0.5669,0.567,0.3924,0.394,0.403,0.4129,0.4252,0.4381,0.4421,0.4608,0.4755,0.4913,0.5192,0.5276,0.5471,0.5527,0.5495,0.539,0.5341,0.5283,0.5268,0.5066,0.4815,0.537,0.535,0.5352,0.5354,0.5355,0.5356,0,0.3809,0.385,0.3937,0.4022,0.4079,0.4217,0.4381,0.4365,0.439,0.459,0.4697,0.4891,0.4911,0.5041,0.5095,0.4929,0.4696,0.4804,0.4525,0.4438,0.5085,0.4979,0.4731,0.4731,0.4731,0.4731,0.4731,0.4731,0.3755,0.3758,0.3795,0.3819,0.3884,0.3882,0.392,0.3898,0.3982,0.3993,0.4065,0.4244,0.4636,0.4826,0.475,0.4627,0.4311,0.4094,0.4048,0.4628,0.4673,0.4717,0.4607,0.4286,0.4286,0.3254,0.3247,0.3241]},{"header":{"parameterUnit":"m.s-1","parameterCategory":2,"la1":30.2991,"la2":30.254,"lo1":-89.0895,"lo2":-89.0444,"dy":0.0017,"dx":0.0017,"nx":28,"ny":28,"refTime":"2024-06-05T21:00:00:Z","depth":"0","parameterNumber":3,"parameterNumberName":"V-component_of_CURRENTS"},"data":[0,0,0,0,0,0,0,0,0,0,0,0,0,0,0,0,0,0,0,0,0,0,0,0,0,0,0,0,0,0,0,0,0,0,0,0,0,0,0,0,0,0,0,0,0,0,0,0,0,0,0,0,0,0,0,0,0,0,0.0073,0.0072,0,-0.001,-0.0011,-0.0012,-0.007,-0.0071,-0.0071,-0.0071,-0.0192,-0.0195,-0.0198,0,0,0,0,0,0,0,0,0,0,0,0,0,0.0114,0.0114,0.0073,0.0072,0.0071,-0.0009,-0.0011,-0.0012,-0.007,-0.0071,-0.0071,-0.0071,-0.0191,-0.0195,-0.0198,0,0,0,0,0,0,0,0,0,0,0,0,0,0.0069,0.0114,0.0073,0.0033,0.0029,-0.0009,-0.0011,-0.0012,-0.007,-0.0071,-0.0071,-0.0072,-0.019,-0.0195,-0.0199,-0.0216,0,0,-0.0212,-0.0214,0,0,0,0,0,0,0,0,0.0072,0.0067,0.004,0.0036,0.0031,-0.0029,-0.0041,-0.0082,-0.007,-0.0034,-0.0071,-0.0072,-0.014,-0.0148,-0.0165,-0.0222,-0.0227,-0.0213,-0.0215,-0.0217,-0.0218,0,0,0,0,0,0,0,0.0075,0.007,0.0038,0.0039,0.0034,-0.0002,-0.0009,-0.0049,-0.0085,-0.0037,-0.0041,-0.0048,-0.0143,-0.016,-0.0168,-0.0229,-0.0213,-0.0216,-0.0219,-0.0221,-0.0324,-0.0324,0,0,0,0,0,0,0.0093,0.0074,0.0041,0.0036,0.0053,-0.0002,-0.001,-0.001,-0.0084,-0.0095,-0.0047,-0.005,-0.0153,-0.0163,-0.0173,-0.0181,-0.0217,-0.0221,-0.0224,-0.0323,-0.0324,-0.0324,0,0,0,0,0,0,0.0094,0.0091,0.0044,0.0054,0.0046,-0.0002,-0.0003,-0.0012,-0.0026,-0.0091,-0.0103,-0.0051,-0.0153,-0.0166,-0.0204,-0.0187,-0.0223,-0.0227,-0.0323,-0.0323,-0.0324,-0.021,0,0,0,0,0,0,0.0096,0.0092,0.0096,0.0055,0.0046,0.0032,-0.0002,-0.0013,-0.0029,-0.0033,-0.0099,-0.0111,-0.0155,-0.0197,-0.0208,-0.0194,-0.0231,-0.0323,-0.0323,-0.0324,-0.0214,-0.0206,-0.02,0,0,0,0,0,0.0097,0.0113,0.0097,0.0093,0.0054,0.0033,0.0025,-0.0013,-0.0028,-0.0028,-0.0075,-0.0108,-0.0206,-0.02,-0.0214,-0.02,-0.0323,-0.0323,-0.0324,-0.0217,-0.0208,-0.02,0,0,0,0,0,0,0.0133,0.0107,0.0089,0.0096,0.007,0.0024,0.0022,-0.0004,-0.0041,-0.0044,-0.0107,-0.0122,-0.0152,-0.0196,-0.0187,-0.0234,-0.0271,-0.0274,-0.0186,-0.0178,-0.0171,-0.0119,-0.0234,0,0,0,0,0,0.0144,0.015,0.0114,0.012,0.0111,0.0068,0.0054,0.0031,-0.0006,-0.0022,-0.0068,-0.012,-0.0164,-0.0184,-0.0233,-0.0252,-0.0268,-0.0256,-0.0249,-0.0243,-0.0212,-0.0213,-0.0202,-0.0324,-0.0324,-0.0324,0,0,0.016,0.0147,0.0149,0.0128,0.0105,0.0106,0.0058,0.0049,0.0051,-0.003,-0.0042,-0.0099,-0.0167,-0.0191,-0.0208,-0.0222,-0.0222,-0.0243,-0.0236,-0.0209,-0.0212,-0.0199,-0.0188,-0.0324,-0.0324,-0.0324,0,0,0.0202,0.0184,0.0203,0.0188,0.0165,0.014,0.0143,0.0103,0.0085,0.0062,0.0005,-0.0033,-0.0104,-0.0139,-0.0169,-0.0153,-0.0189,-0.018,-0.0095,-0.0096,-0.0085,-0.0075,-0.0092,-0.0085,-0.0171,-0.0171,-0.0171,0,0.0221,0.0241,0.0205,0.0218,0.022,0.0164,0.0187,0.016,0.0113,0.0115,0.0072,-0.0004,-0.0073,-0.0081,-0.0085,-0.0132,-0.0142,-0.0115,-0.0082,-0.0073,-0.0064,-0.0084,-0.0077,-0.0165,-0.0166,-0.0167,-0.0167,0,0.0274,0.0289,0.0301,0.0303,0.0297,0.0309,0.0273,0.0267,0.0236,0.0211,0.0193,0.0106,0.0073,0.003,-0.0027,-0.0005,-0.0035,-0.0073,-0.0089,-0.0044,-0.007,-0.0065,-0.0158,-0.016,-0.0161,-0.0163,0,0,0.0333,0.0338,0.0346,0.0369,0.0348,0.0358,0.0365,0.0367,0.0401,0.0334,0.038,0.0273,0.0241,0.0205,0.0132,0.0118,0.0139,0.0058,0.0055,0.0066,0.0137,0.0087,0.0087,0.0117,0.0119,0.0121,0.0092,0,0.0391,0.0446,0.0429,0.0487,0.0516,0.048,0.0503,0.0496,0.0477,0.0503,0.0427,0.0427,0.0303,0.0303,0.0268,0.0187,0.0161,0.0151,0.0071,0.0068,0.004,0.0095,0.013,0.0106,0.0097,0.0098,0.0098,0,0.0458,0.0488,0.0558,0.0603,0.0614,0.0643,0.0694,0.0705,0.0711,0.0702,0.0688,0.0631,0.0602,0.0492,0.039,0.0395,0.0279,0.0199,0.0195,0.0122,0.003,0.0058,0.0116,-0.0128,0.0106,0.0105,0.0105,0,0.0543,0.0588,0.0656,0.0667,0.07,0.074,0.0762,0.0778,0.0828,0.085,0.0905,0.0831,0.0832,0.0698,0.0509,0.0465,0.0403,0.0316,0.0156,0.015,0.0152,0.0143,-0.0008,0.0246,0.0246,0.0246,0.0246,0,0.0622,0.0678,0.0708,0.075,0.0853,0.084,0.0954,0.0962,0.1023,0.1135,0.103,0.1113,0.0889,0.0813,0.0609,0.0421,0.0477,0.0199,0.0155,0.0186,0.0181,-0.0056,-0.0195,0.0245,0.0245,0.0246,0.0246,0,0.0706,0.0721,0.0807,0.0866,0.09,0.0977,0.1086,0.1171,0.1207,0.1361,0.1389,0.1348,0.1246,0.0998,0.0788,0.0566,0.024,0.0281,0.0323,0.0283,-0.0121,-0.0255,-0.0444,-0.0558,0.0108,0.0107,0.0106,0,0.0752,0.0808,0.0905,0.0976,0.1013,0.1122,0.1214,0.1267,0.1378,0.1527,0.1631,0.1573,0.1578,0.1235,0.0831,0.0476,0.0218,0.0243,0.0144,-0.0113,-0.0294,-0.0405,-0.0495,0.0183,0.0182,0.0182,0.0182,0,0.0846,0.0882,0.0955,0.1102,0.1213,0.134,0.148,0.1602,0.171,0.1855,0.2035,0.2059,0.1721,0.1387,0.0858,0.0593,0.0077,0.0223,-0.0032,-0.0229,-0.0365,-0.0503,0.0146,0.018,0.018,0.018,0.018,0.018,0.0922,0.0991,0.1098,0.1239,0.1374,0.1559,0.1696,0.187,0.2091,0.2325,0.2324,0.2413,0.1907,0.1197,0.0783,0.0045,0.0011,-0.0186,-0.0319,-0.0404,-0.0533,0.0097,0.0066,0.0065,0.0065,0.0065,0.0064,0,0.1007,0.1092,0.123,0.1408,0.1575,0.1626,0.1879,0.2038,0.2329,0.2533,0.2674,0.252,0.1863,0.1173,0.019,-0.0368,-0.0576,-0.0675,-0.0817,-0.088,-0.0294,-0.0312,-0.0437,-0.0437,-0.0437,-0.0436,-0.0436,-0.0436,0.1057,0.1196,0.1266,0.1552,0.1688,0.1931,0.2086,0.233,0.253,0.2802,0.2895,0.2916,0.2452,0.0664,-0.0578,-0.088,-0.1256,-0.1349,-0.1565,-0.1169,-0.1134,-0.11,-0.115,-0.1449,-0.145,-0.2069,-0.2075,-0.208]}],[{"header":{"parameterUnit":"m.s-1","parameterCategory":2,"la1":30.2991,"la2":30.254,"lo1":-89.0895,"lo2":-89.0444,"dy":0.0017,"dx":0.0017,"nx":28,"ny":28,"refTime":"2024-06-05T21:00:00:Z","depth":"2","parameterNumber":2,"parameterNumberName":"U-component_of_CURRENTS"},"data":[0,0,0,0,0,0,0,0,0,0,0,0,0,0,0,0,0,0,0,0,0,0,0,0,0,0,0,0,0,0,0,0,0,0,0,0,0,0,0,0,0,0,0,0,0,0,0,0,0,0,0,0,0,0,0,0,0,0,0.3525,0.3525,0,0.3546,0.3546,0.3546,0.3538,0.3538,0.3538,0.3537,0.3522,0.3522,0.3522,0,0,0,0,0,0,0,0,0,0,0,0,0,0.3481,0.3482,0.3525,0.3525,0.3526,0.3546,0.3546,0.3546,0.3538,0.3538,0.3537,0.3537,0.3522,0.3522,0.3522,0,0,0,0,0,0,0,0,0,0,0,0,0,0.3498,0.3482,0.3525,0.3526,0.3527,0.3546,0.3546,0.3546,0.3538,0.3538,0.3537,0.3537,0.3522,0.3522,0.3522,0.3527,0,0,0.3521,0.3521,0,0,0,0,0,0,0,0,0.3498,0.35,0.3525,0.3526,0.3527,0.3542,0.3526,0.3539,0.3538,0.3531,0.3537,0.3537,0.3527,0.3527,0.3528,0.3526,0.3526,0.3521,0.3521,0.3521,0.3521,0,0,0,0,0,0,0,0.3496,0.3499,0.353,0.3526,0.3527,0.3528,0.3529,0.3528,0.3528,0.3531,0.3532,0.3539,0.3527,0.3528,0.3528,0.3526,0.3521,0.3521,0.3521,0.352,0.3621,0.3623,0,0,0,0,0,0,0.35,0.3498,0.353,0.3531,0.3514,0.3529,0.3531,0.3535,0.3529,0.3529,0.3539,0.3538,0.3529,0.3528,0.3527,0.3608,0.3521,0.352,0.352,0.3618,0.3621,0.3624,0,0,0,0,0,0,0.3499,0.3502,0.3529,0.3517,0.3521,0.353,0.3535,0.3536,0.3552,0.3535,0.3534,0.3556,0.3529,0.3527,0.3551,0.3605,0.352,0.352,0.3615,0.3619,0.3623,0.3723,0,0,0,0,0,0,0.3497,0.3502,0.351,0.3518,0.3522,0.3556,0.3536,0.3536,0.3557,0.3557,0.355,0.3547,0.3528,0.3552,0.3551,0.3603,0.352,0.3611,0.3617,0.3622,0.3716,0.373,0.3742,0,0,0,0,0,0.3496,0.3511,0.351,0.3514,0.3531,0.3558,0.356,0.3563,0.3559,0.3574,0.3575,0.3548,0.3585,0.3553,0.3552,0.3605,0.3608,0.3615,0.3621,0.371,0.3727,0.3741,0,0,0,0,0,0,0.3494,0.3512,0.3511,0.353,0.3549,0.3558,0.3575,0.3577,0.359,0.3593,0.3571,0.357,0.3612,0.3598,0.3563,0.3653,0.3598,0.3604,0.3666,0.3682,0.3695,0.3707,0.352,0,0,0,0,0,0.3499,0.3517,0.3532,0.355,0.3562,0.3572,0.3584,0.3591,0.3602,0.3608,0.3604,0.3614,0.3636,0.3649,0.3655,0.3698,0.3708,0.3737,0.375,0.3761,0.3773,0.3858,0.388,0.3645,0.3645,0.3645,0,0,0.3502,0.3517,0.3526,0.3552,0.3566,0.3595,0.3578,0.361,0.364,0.3604,0.3643,0.365,0.3656,0.3706,0.3726,0.3703,0.3832,0.3769,0.3778,0.3784,0.3867,0.389,0.391,0.365,0.3649,0.3648,0,0,0.352,0.3535,0.3555,0.3578,0.3611,0.3624,0.3639,0.3661,0.3678,0.3716,0.371,0.3757,0.3768,0.3803,0.3818,0.391,0.3892,0.3913,0.3994,0.4077,0.4097,0.4115,0.4146,0.4166,0.3927,0.3927,0.3927,0,0.3523,0.3549,0.3567,0.3597,0.3622,0.3642,0.3674,0.3701,0.373,0.3759,0.3741,0.3822,0.3823,0.3914,0.395,0.3941,0.3964,0.393,0.4095,0.4112,0.4129,0.4157,0.4177,0.3933,0.3932,0.3932,0.3931,0,0.3552,0.358,0.3601,0.3644,0.3677,0.3712,0.3752,0.3793,0.3816,0.3843,0.3929,0.395,0.4007,0.4024,0.4012,0.4141,0.411,0.4094,0.4052,0.4159,0.4181,0.42,0.3941,0.3939,0.3937,0.3936,0,0,0.3529,0.3604,0.361,0.3636,0.3705,0.3729,0.3806,0.3873,0.3931,0.3979,0.406,0.4128,0.4154,0.4176,0.419,0.4263,0.4394,0.4236,0.4237,0.4261,0.4552,0.4465,0.4477,0.4411,0.4415,0.4419,0.4515,0,0.3542,0.3598,0.3641,0.3701,0.3732,0.3792,0.3856,0.3927,0.3995,0.4079,0.4149,0.4223,0.4211,0.4254,0.4336,0.438,0.4452,0.4367,0.445,0.4451,0.4359,0.45,0.4137,0.4189,0.4534,0.4537,0.454,0,0.3543,0.3585,0.3643,0.3725,0.3745,0.3793,0.3908,0.3971,0.4106,0.4164,0.428,0.4325,0.4459,0.4421,0.4582,0.453,0.4557,0.4579,0.4583,0.4482,0.4403,0.4142,0.421,0.4572,0.4569,0.4567,0.4565,0,0.3493,0.358,0.3624,0.3653,0.3754,0.3804,0.3867,0.3998,0.4074,0.4236,0.4318,0.4459,0.4552,0.4631,0.4696,0.4654,0.4847,0.4788,0.4732,0.4723,0.442,0.4378,0.4905,0.4904,0.4904,0.4904,0.4904,0,0.3472,0.3505,0.3607,0.3626,0.3689,0.3778,0.3874,0.3964,0.4125,0.4224,0.4364,0.4476,0.4616,0.4734,0.4756,0.4822,0.4908,0.4778,0.4768,0.4442,0.4403,0.4732,0.4711,0.4907,0.4907,0.4906,0.4905,0,0.3397,0.3465,0.3514,0.3624,0.3662,0.3706,0.3859,0.3931,0.4102,0.4249,0.4309,0.4533,0.4685,0.4795,0.4931,0.4901,0.4956,0.4946,0.4535,0.4477,0.4748,0.4731,0.489,0.4889,0.4887,0.4886,0.4885,0,0.3358,0.338,0.3485,0.3517,0.3568,0.3658,0.3717,0.3891,0.3982,0.4263,0.4321,0.4549,0.4664,0.4849,0.4848,0.4889,0.4963,0.4553,0.4413,0.4785,0.476,0.4745,0.473,0.4035,0.4028,0.4021,0.4016,0,0.3282,0.3325,0.3365,0.343,0.349,0.3555,0.3665,0.3726,0.3935,0.4073,0.4255,0.4381,0.459,0.4492,0.4581,0.4543,0.4517,0.4423,0.4957,0.4104,0.399,0.3961,0.3973,0.3959,0.3964,0.3969,0.3972,0.3974,0.3219,0.3222,0.3279,0.3324,0.3383,0.3415,0.3416,0.3544,0.3645,0.3792,0.403,0.4099,0.4196,0.4151,0.4046,0.3968,0.4271,0.4058,0.4073,0.4096,0.3989,0.388,0.3805,0.381,0.3814,0.3817,0.382,0,0.3113,0.3133,0.3171,0.3194,0.318,0.3279,0.334,0.3306,0.3328,0.3515,0.3639,0.3439,0.3419,0.3505,0.3312,0.333,0.3248,0.3177,0.3026,0.3089,0.3144,0.2982,0.2534,0.2529,0.2525,0.2521,0,0,0.3062,0.3034,0.3043,0.2972,0.2996,0.2924,0.2917,0.2901,0.2965,0.2957,0.2981,0.3278,0.3425,0.2931,0.2883,0.2665,0.2838,0.256,0.3607,0.3494,0.3542,0.3689,0.3518,0,0,0,0,0]},{"header":{"parameterUnit":"m.s-1","parameterCategory":2,"la1":30.2991,"la2":30.254,"lo1":-89.0895,"lo2":-89.0444,"dy":0.0017,"dx":0.0017,"nx":28,"ny":28,"refTime":"2024-06-05T21:00:00:Z","depth":"2","parameterNumber":3,"parameterNumberName":"V-component_of_CURRENTS"},"data":[0,0,0,0,0,0,0,0,0,0,0,0,0,0,0,0,0,0,0,0,0,0,0,0,0,0,0,0,0,0,0,0,0,0,0,0,0,0,0,0,0,0,0,0,0,0,0,0,0,0,0,0,0,0,0,0,0,0,0.0079,0.0078,0,0.0005,0.0004,0.0003,-0.0047,-0.0047,-0.0047,-0.0047,-0.0139,-0.0141,-0.0143,0,0,0,0,0,0,0,0,0,0,0,0,0,0.0117,0.0117,0.0079,0.0078,0.0077,0.0005,0.0004,0.0003,-0.0047,-0.0047,-0.0047,-0.0047,-0.0138,-0.0141,-0.0143,0,0,0,0,0,0,0,0,0,0,0,0,0,0.0077,0.0117,0.0079,0.0045,0.0041,0.0005,0.0004,0.0002,-0.0047,-0.0047,-0.0047,-0.0048,-0.0137,-0.014,-0.0144,-0.0157,0,0,-0.0154,-0.0155,0,0,0,0,0,0,0,0,0.0079,0.0075,0.0051,0.0047,0.0043,-0.0011,-0.0016,-0.0051,-0.0046,-0.0014,-0.0047,-0.0048,-0.0097,-0.0103,-0.0118,-0.0161,-0.0165,-0.0154,-0.0156,-0.0157,-0.0158,0,0,0,0,0,0,0,0.0082,0.0078,0.0048,0.005,0.0045,0.0012,0.0007,-0.0024,-0.0054,-0.0017,-0.0021,-0.0027,-0.0099,-0.0114,-0.012,-0.0167,-0.0154,-0.0157,-0.0159,-0.016,-0.0213,-0.0212,0,0,0,0,0,0,0.0097,0.0081,0.0051,0.0046,0.0062,0.0012,0.0006,0.0006,-0.0053,-0.0062,-0.0027,-0.0029,-0.0109,-0.0116,-0.0124,-0.0119,-0.0157,-0.016,-0.0162,-0.0214,-0.0213,-0.0212,0,0,0,0,0,0,0.0098,0.0095,0.0054,0.0062,0.0055,0.0013,0.0012,0.0004,-0.0007,-0.006,-0.007,-0.0029,-0.0109,-0.0119,-0.0144,-0.0124,-0.0162,-0.0165,-0.0214,-0.0213,-0.0213,-0.0126,0,0,0,0,0,0,0.01,0.0097,0.0101,0.0064,0.0055,0.0044,0.0013,0.0003,-0.001,-0.0014,-0.0065,-0.0074,-0.011,-0.0138,-0.0147,-0.013,-0.0168,-0.0215,-0.0214,-0.0213,-0.013,-0.0123,-0.0116,0,0,0,0,0,0.0102,0.0115,0.0101,0.0098,0.0063,0.0044,0.0037,0.0004,-0.0009,-0.0008,-0.0044,-0.0073,-0.0137,-0.0141,-0.0151,-0.0134,-0.0216,-0.0214,-0.0213,-0.0133,-0.0124,-0.0116,0,0,0,0,0,0,0.0133,0.011,0.0095,0.01,0.0078,0.0037,0.0035,0.0013,-0.0016,-0.0018,-0.0069,-0.008,-0.0095,-0.0127,-0.0129,-0.0146,-0.018,-0.018,-0.0115,-0.0107,-0.0101,-0.0068,-0.017,0,0,0,0,0,0.0143,0.0149,0.0117,0.0122,0.0114,0.0076,0.0064,0.0044,0.0014,0.0001,-0.0036,-0.0071,-0.0098,-0.0112,-0.0145,-0.0154,-0.0183,-0.0149,-0.0142,-0.0136,-0.0117,-0.0143,-0.0136,-0.0208,-0.0208,-0.0208,0,0,0.0156,0.0145,0.0147,0.0129,0.0109,0.0111,0.0068,0.0059,0.0064,-0.0004,-0.001,-0.0051,-0.0097,-0.0108,-0.0116,-0.0131,-0.0134,-0.0134,-0.0129,-0.0112,-0.0141,-0.0133,-0.0127,-0.0207,-0.0207,-0.0207,0,0,0.0192,0.0177,0.0194,0.0182,0.0161,0.0141,0.0144,0.0109,0.0095,0.008,0.0036,0.0011,-0.0035,-0.0059,-0.0077,-0.0051,-0.0099,-0.0065,-0.0001,-0.0027,-0.0021,-0.0016,-0.0053,-0.0052,-0.0058,-0.0058,-0.0058,0,0.0209,0.0227,0.0196,0.0209,0.0212,0.0162,0.0185,0.0163,0.0125,0.0127,0.0092,0.0039,-0.0007,-0.0006,-0.0002,-0.0033,-0.0062,-0.0027,-0.0016,-0.0012,-0.0008,-0.0048,-0.0048,-0.0054,-0.0054,-0.0055,-0.0055,0,0.0255,0.027,0.028,0.0285,0.0283,0.0294,0.0266,0.0262,0.0237,0.0215,0.0203,0.0136,0.0113,0.0087,0.0047,0.0057,0.0023,-0.0006,-0.0032,0.0005,-0.0041,-0.0042,-0.0048,-0.0049,-0.0051,-0.0052,0,0,0.0304,0.0313,0.0319,0.0343,0.0329,0.034,0.0351,0.0356,0.0384,0.0325,0.0354,0.0286,0.0251,0.0228,0.0172,0.0142,0.0127,0.0086,0.0083,0.0057,0.0063,0.0029,0.0023,0.01,0.01,0.0101,0.0018,0,0.0355,0.0406,0.0394,0.0451,0.0479,0.0451,0.0476,0.0473,0.0456,0.0466,0.0397,0.0392,0.0304,0.0297,0.0255,0.0167,0.0129,0.0152,0.0024,0.0021,-0.0007,0.0022,0.0056,-0.0015,0.0016,0.0015,0.0015,0,0.0413,0.0442,0.0508,0.0555,0.0567,0.0594,0.0643,0.0657,0.065,0.0637,0.061,0.0549,0.0501,0.0418,0.029,0.0309,0.02,0.0117,0.0111,0.0054,-0.0016,-0.0047,-0.002,0.0012,0.0012,0.0012,0.0013,0,0.0485,0.0531,0.0594,0.0606,0.0643,0.0681,0.0705,0.0718,0.0763,0.0751,0.078,0.0691,0.0669,0.0526,0.0342,0.0321,0.0193,0.014,0.0002,-0.0003,-0.001,-0.0016,0.0052,0.0052,0.0052,0.0052,0.0053,0,0.0556,0.0607,0.0638,0.0676,0.0773,0.0766,0.0868,0.0876,0.0914,0.0994,0.0882,0.0916,0.0697,0.0589,0.0399,0.0205,0.0234,0.0027,-0.0017,0.0018,0.0016,0.0012,0.0009,0.0049,0.005,0.0051,0.0051,0,0.0626,0.0642,0.0721,0.0779,0.0813,0.0884,0.0985,0.1056,0.1073,0.1174,0.118,0.1097,0.0956,0.0719,0.0486,0.0299,0.0099,0.0017,0.0065,0.0028,-0.0099,-0.0097,-0.0139,-0.014,-0.0142,-0.0143,-0.0144,0,0.0666,0.0715,0.0808,0.0873,0.0908,0.101,0.1093,0.114,0.1229,0.1295,0.136,0.1251,0.1201,0.0835,0.0484,0.0149,0.0099,-0.0051,-0.009,-0.0075,-0.0114,-0.011,-0.0107,-0.0077,-0.0077,-0.0078,-0.0078,0,0.0747,0.0778,0.0845,0.0979,0.1081,0.1198,0.1321,0.1415,0.1489,0.157,0.1648,0.161,0.127,0.0931,0.046,0.0235,0.0001,-0.0069,-0.0048,-0.0032,-0.0024,-0.006,-0.0057,-0.0081,-0.008,-0.008,-0.008,-0.008,0.0812,0.0872,0.0967,0.1095,0.1217,0.1374,0.1488,0.1621,0.1775,0.1898,0.1854,0.1801,0.1417,0.0818,0.0405,-0.0031,-0.0004,-0.0163,-0.0159,-0.0155,-0.0132,-0.0126,-0.0198,-0.0199,-0.0199,-0.0199,-0.02,0,0.0888,0.0958,0.1079,0.1233,0.1374,0.1432,0.1635,0.1747,0.1934,0.2026,0.2075,0.1717,0.133,0.0878,0.0231,-0.015,-0.0171,-0.0271,-0.0217,-0.021,-0.0205,-0.0183,-0.0265,-0.0266,-0.0268,-0.0269,0,0,0.0931,0.1051,0.1107,0.1341,0.1458,0.1659,0.178,0.1941,0.2047,0.2129,0.2098,0.2016,0.1473,0.0991,0.0473,0.0094,0.0032,0.0027,0.0125,0.0258,0.0267,-0.0094,-0.0046,0,0,0,0,0]}],[{"header":{"parameterUnit":"m.s-1","parameterCategory":2,"la1":30.2991,"la2":30.254,"lo1":-89.0895,"lo2":-89.0444,"dy":0.0017,"dx":0.0017,"nx":28,"ny":28,"refTime":"2024-06-05T21:00:00:Z","depth":"4","parameterNumber":2,"parameterNumberName":"U-component_of_CURRENTS"},"data":[0,0,0,0,0,0,0,0,0,0,0,0,0,0,0,0,0,0,0,0,0,0,0,0,0,0,0,0,0,0,0,0,0,0,0,0,0,0,0,0,0,0,0,0,0,0,0,0,0,0,0,0,0,0,0,0,0,0,0.2362,0.2363,0,0.244,0.244,0.2441,0.2512,0.2513,0.2514,0.2515,0.2591,0.2592,0.2593,0,0,0,0,0,0,0,0,0,0,0,0,0,0.226,0.2261,0.2361,0.2363,0.2364,0.2439,0.244,0.2441,0.2511,0.2513,0.2514,0.2515,0.2591,0.2592,0.2593,0,0,0,0,0,0,0,0,0,0,0,0,0,0.2315,0.2262,0.2361,0.241,0.2415,0.2439,0.244,0.2441,0.2511,0.2513,0.2514,0.2516,0.259,0.2592,0.2593,0.2571,0,0,0.2598,0.2599,0,0,0,0,0,0,0,0,0.2312,0.2319,0.2401,0.2406,0.2413,0.247,0.2433,0.2485,0.2511,0.2472,0.2515,0.2517,0.2551,0.2555,0.2563,0.2575,0.2578,0.2598,0.2599,0.26,0.26,0,0,0,0,0,0,0,0.2308,0.2316,0.239,0.2403,0.2409,0.2423,0.2433,0.2443,0.25,0.2476,0.2482,0.2493,0.2553,0.2562,0.2566,0.2579,0.2598,0.26,0.26,0.2601,0.2713,0.2715,0,0,0,0,0,0,0.2302,0.2312,0.2388,0.2393,0.2368,0.2424,0.2435,0.2448,0.25,0.251,0.2492,0.2497,0.2558,0.2564,0.2569,0.2673,0.26,0.2601,0.2602,0.2711,0.2714,0.2716,0,0,0,0,0,0,0.23,0.2308,0.2384,0.2356,0.2367,0.2424,0.2438,0.2448,0.2509,0.2513,0.2523,0.2549,0.256,0.2566,0.2626,0.2671,0.2602,0.2603,0.2709,0.2712,0.2715,0.2799,0,0,0,0,0,0,0.2297,0.2307,0.2338,0.2355,0.2368,0.2433,0.2437,0.2449,0.2512,0.252,0.2563,0.2569,0.2561,0.2624,0.2628,0.2672,0.2605,0.2706,0.271,0.2714,0.2793,0.2804,0.2814,0,0,0,0,0,0.2293,0.2321,0.2338,0.2349,0.2401,0.2434,0.2443,0.2486,0.2514,0.2546,0.2582,0.257,0.2651,0.2627,0.2631,0.2677,0.2704,0.2709,0.2714,0.2789,0.2802,0.2813,0,0,0,0,0,0,0.2295,0.2332,0.2351,0.2392,0.2428,0.2448,0.2491,0.2515,0.2568,0.2593,0.2595,0.2603,0.2674,0.2663,0.2637,0.2721,0.2676,0.2682,0.2732,0.2745,0.2755,0.2766,0.2606,0,0,0,0,0,0.2307,0.2346,0.2373,0.2414,0.2436,0.2473,0.2503,0.2532,0.2568,0.2597,0.2626,0.2657,0.2685,0.2708,0.2729,0.2772,0.2783,0.2805,0.2815,0.2823,0.2837,0.2899,0.2916,0.2731,0.2731,0.2731,0,0,0.2321,0.2348,0.2372,0.2419,0.2454,0.2489,0.2497,0.2557,0.2598,0.2593,0.2677,0.27,0.2707,0.2761,0.279,0.2764,0.2883,0.2829,0.2837,0.2845,0.2906,0.2924,0.294,0.2734,0.2734,0.2733,0,0,0.2348,0.2393,0.2428,0.2461,0.2522,0.254,0.2568,0.2618,0.2661,0.2729,0.2739,0.2794,0.2838,0.2851,0.286,0.2938,0.2938,0.2951,0.3009,0.307,0.3086,0.31,0.314,0.3157,0.2951,0.2951,0.2952,0,0.2368,0.2407,0.2445,0.2483,0.2519,0.2568,0.2607,0.265,0.2718,0.2756,0.2774,0.2868,0.2878,0.2933,0.2966,0.2962,0.2995,0.296,0.3084,0.3098,0.3111,0.3149,0.3166,0.2956,0.2956,0.2955,0.2955,0,0.2398,0.2451,0.248,0.2541,0.2583,0.2633,0.2684,0.2748,0.2808,0.2844,0.2943,0.2969,0.3025,0.3037,0.303,0.3123,0.3117,0.3093,0.3053,0.3135,0.3169,0.3186,0.2963,0.2961,0.296,0.2958,0,0,0.2379,0.248,0.2496,0.2532,0.2621,0.2648,0.2736,0.2808,0.2871,0.2955,0.3035,0.3099,0.3137,0.315,0.3155,0.3207,0.3325,0.3202,0.3203,0.3241,0.3467,0.3251,0.3248,0.3337,0.3341,0.3343,0.3455,0,0.2395,0.2467,0.2519,0.2595,0.2632,0.271,0.2777,0.2857,0.2938,0.3029,0.309,0.3173,0.3171,0.3219,0.3275,0.332,0.3375,0.3297,0.3383,0.3385,0.3181,0.3261,0.3354,0.3467,0.3471,0.3474,0.3476,0,0.2392,0.2445,0.2522,0.2617,0.2642,0.2704,0.2822,0.2892,0.3024,0.3091,0.3196,0.3253,0.3362,0.3342,0.3478,0.3439,0.3471,0.3492,0.3496,0.3275,0.3198,0.3368,0.3506,0.3504,0.3501,0.3499,0.3498,0,0.2328,0.2437,0.2501,0.2536,0.2654,0.2719,0.2796,0.2925,0.2999,0.3155,0.3238,0.3355,0.3451,0.3518,0.3591,0.3558,0.3724,0.367,0.3501,0.3486,0.3611,0.3594,0.3764,0.3764,0.3764,0.3764,0.3763,0,0.2289,0.2343,0.2487,0.2517,0.2599,0.2701,0.2808,0.29,0.3052,0.3139,0.3281,0.3362,0.3513,0.3619,0.3643,0.363,0.3775,0.3527,0.3505,0.3642,0.3629,0.3623,0.3605,0.3768,0.3767,0.3766,0.3765,0,0.2197,0.2296,0.2371,0.2518,0.2572,0.2636,0.2811,0.2874,0.3048,0.3175,0.324,0.3429,0.3555,0.3667,0.3785,0.3684,0.3692,0.365,0.3812,0.3796,0.3397,0.3383,0.3451,0.3444,0.3438,0.3434,0.343,0,0.2148,0.2186,0.2354,0.2403,0.2481,0.2601,0.2671,0.285,0.2921,0.3177,0.3213,0.3423,0.3521,0.3519,0.3639,0.3669,0.3625,0.3597,0.3466,0.3396,0.3369,0.3363,0.3356,0.3421,0.3419,0.3418,0.3416,0,0.2051,0.2141,0.2205,0.231,0.2399,0.2473,0.26,0.2637,0.2839,0.3034,0.3114,0.318,0.3314,0.3382,0.3447,0.3452,0.3589,0.3537,0.3547,0.3424,0.336,0.3338,0.3338,0.3397,0.34,0.3401,0.3403,0,0.199,0.2011,0.2115,0.2183,0.2283,0.2306,0.2394,0.2477,0.2574,0.2854,0.2875,0.3088,0.3282,0.3272,0.3324,0.3324,0.3254,0.312,0.315,0.3173,0.3027,0.2902,0.2793,0,0,0,0,0,0.1908,0.1913,0.1972,0.2025,0.2112,0.2172,0.2317,0.2411,0.2619,0.2604,0.2733,0.2836,0.2915,0.302,0.2963,0.3194,0.3266,0.311,0.3126,0.3289,0.3311,0.3163,0,0,0,0,0,0,0.1851,0.1905,0.1916,0.1874,0.1883,0.1953,0.2039,0.2185,0.2188,0.242,0.2482,0.2658,0.2783,0.2927,0.2909,0.2941,0.2888,0.3247,0.3239,0.3276,0.3296,0.3315,0.317,0,0,0,0,0]},{"header":{"parameterUnit":"m.s-1","parameterCategory":2,"la1":30.2991,"la2":30.254,"lo1":-89.0895,"lo2":-89.0444,"dy":0.0017,"dx":0.0017,"nx":28,"ny":28,"refTime":"2024-06-05T21:00:00:Z","depth":"4","parameterNumber":3,"parameterNumberName":"V-component_of_CURRENTS"},"data":[0,0,0,0,0,0,0,0,0,0,0,0,0,0,0,0,0,0,0,0,0,0,0,0,0,0,0,0,0,0,0,0,0,0,0,0,0,0,0,0,0,0,0,0,0,0,0,0,0,0,0,0,0,0,0,0,0,0,0.0081,0.0081,0,0.003,0.003,0.0029,-0.0005,-0.0005,-0.0005,-0.0005,-0.0067,-0.0068,-0.007,0,0,0,0,0,0,0,0,0,0,0,0,0,0.0106,0.0106,0.0081,0.0081,0.008,0.0031,0.003,0.0029,-0.0005,-0.0005,-0.0005,-0.0005,-0.0066,-0.0068,-0.007,0,0,0,0,0,0,0,0,0,0,0,0,0,0.0079,0.0106,0.0081,0.0058,0.0055,0.0031,0.003,0.0029,-0.0005,-0.0005,-0.0005,-0.0005,-0.0066,-0.0068,-0.007,-0.0079,0,0,-0.0077,-0.0078,0,0,0,0,0,0,0,0,0.008,0.0078,0.0062,0.0059,0.0057,0.002,0.0016,-0.0007,-0.0005,0.0017,-0.0005,-0.0005,-0.0038,-0.0043,-0.0052,-0.0081,-0.0084,-0.0077,-0.0078,-0.0079,-0.008,0,0,0,0,0,0,0,0.0082,0.0079,0.006,0.0061,0.0058,0.0035,0.0031,0.0011,-0.0009,0.0015,0.0013,0.0009,-0.004,-0.005,-0.0054,-0.0085,-0.0077,-0.0079,-0.008,-0.0081,-0.0103,-0.0102,0,0,0,0,0,0,0.0093,0.0082,0.0062,0.0059,0.0069,0.0035,0.0031,0.0031,-0.0009,-0.0015,0.0009,0.0007,-0.0046,-0.0052,-0.0056,-0.0045,-0.0079,-0.0081,-0.0083,-0.0104,-0.0103,-0.0102,0,0,0,0,0,0,0.0093,0.0091,0.0064,0.0069,0.0064,0.0035,0.0036,0.003,0.0024,-0.0013,-0.002,0.0008,-0.0047,-0.0053,-0.0068,-0.0049,-0.0082,-0.0084,-0.0105,-0.0104,-0.0103,-0.0039,0,0,0,0,0,0,0.0094,0.0092,0.0096,0.007,0.0064,0.0058,0.0036,0.0029,0.0021,0.0019,-0.0016,-0.0022,-0.0047,-0.0064,-0.007,-0.0053,-0.0086,-0.0106,-0.0104,-0.0103,-0.0042,-0.0035,-0.003,0,0,0,0,0,0.0095,0.0106,0.0097,0.0094,0.0071,0.0059,0.0054,0.0032,0.0022,0.0024,-0.0,-0.0021,-0.0059,-0.0065,-0.0072,-0.0055,-0.0106,-0.0105,-0.0103,-0.0044,-0.0037,-0.003,0,0,0,0,0,0,0.0117,0.0103,0.0092,0.0097,0.0083,0.0054,0.0054,0.0038,0.002,0.0018,-0.0017,-0.0024,-0.003,-0.0051,-0.0057,-0.0057,-0.0084,-0.0084,-0.0037,-0.003,-0.0024,-0.0006,-0.0088,0,0,0,0,0,0.0125,0.0131,0.0109,0.0114,0.0109,0.0082,0.0075,0.0061,0.0041,0.0032,0.0008,-0.0014,-0.0028,-0.0036,-0.0056,-0.0058,-0.009,-0.005,-0.0044,-0.0039,-0.0028,-0.0064,-0.0061,-0.0097,-0.0097,-0.0097,0,0,0.0135,0.0128,0.0131,0.0119,0.0106,0.011,0.0077,0.0072,0.0079,0.0029,0.003,0.0002,-0.0025,-0.0027,-0.003,-0.0042,-0.0047,-0.0037,-0.0032,-0.0024,-0.0062,-0.0059,-0.0056,-0.0095,-0.0096,-0.0096,0,0,0.0161,0.0152,0.0166,0.0159,0.0146,0.0133,0.0135,0.0111,0.0103,0.0097,0.0067,0.0052,0.0027,0.0013,0.0003,0.003,-0.0017,0.0024,0.007,0.0035,0.0038,0.0039,-0.0004,-0.0006,0.003,0.003,0.003,0,0.0174,0.0189,0.0168,0.0179,0.0184,0.0149,0.0169,0.0155,0.0129,0.0133,0.0108,0.0078,0.005,0.0055,0.0063,0.0044,0.001,0.0046,0.0042,0.0044,0.0044,-0.0001,-0.0004,0.0033,0.0033,0.0032,0.0032,0,0.0208,0.0222,0.0231,0.0239,0.024,0.025,0.0234,0.0233,0.0218,0.0204,0.0199,0.0154,0.0141,0.0128,0.0102,0.0103,0.0072,0.0051,0.0025,0.0052,0.0003,-0.0002,0.0038,0.0037,0.0036,0.0035,0,0,0.024,0.0254,0.0259,0.0282,0.0276,0.0288,0.0301,0.031,0.0331,0.0291,0.031,0.0273,0.0244,0.0231,0.0192,0.0159,0.0128,0.0113,0.0109,0.0071,0.0041,0.0027,0.0019,0.0102,0.0102,0.0101,0.0001,0,0.0277,0.032,0.0316,0.0366,0.039,0.0376,0.04,0.0402,0.039,0.0395,0.0345,0.0344,0.0285,0.0281,0.0238,0.0161,0.0119,0.0157,0.002,0.0016,0.0001,0.0015,0.0101,-0.0002,-0.0004,-0.0005,-0.0005,0,0.0318,0.0344,0.04,0.0448,0.0459,0.0486,0.0529,0.0546,0.0537,0.0528,0.0504,0.0455,0.0411,0.0351,0.0227,0.0252,0.0156,0.0083,0.0077,0.0041,-0.0006,-0.0034,-0.0015,-0.0014,-0.0013,-0.0013,-0.0012,0,0.0365,0.041,0.0464,0.0477,0.0516,0.0552,0.0579,0.0592,0.0628,0.0614,0.0629,0.0551,0.0526,0.0398,0.0244,0.0235,0.0093,0.006,-0.0047,-0.005,-0.0037,-0.0038,-0.0032,-0.0032,-0.0032,-0.0032,-0.0031,0,0.0411,0.0455,0.0495,0.0527,0.0612,0.0617,0.0702,0.0713,0.0739,0.0793,0.0707,0.0714,0.0536,0.043,0.0273,0.0103,0.0113,-0.0034,-0.0071,-0.0009,-0.0006,-0.0042,-0.0041,-0.0035,-0.0035,-0.0034,-0.0033,0,0.0451,0.0473,0.0543,0.0604,0.0639,0.0701,0.0796,0.0849,0.0863,0.0926,0.0927,0.0841,0.0701,0.0508,0.0296,0.0159,-0.0014,-0.0082,0.0,-0.0031,-0.0146,-0.0141,-0.0207,-0.0208,-0.0209,-0.021,-0.0211,0,0.0472,0.0513,0.0608,0.0666,0.0702,0.0795,0.0866,0.0914,0.0972,0.1003,0.1035,0.0926,0.0838,0.0538,0.0317,0.0015,-0.0035,-0.0135,-0.0144,-0.0131,-0.0161,-0.0155,-0.0149,-0.0212,-0.0213,-0.0213,-0.0213,0,0.0517,0.0553,0.0612,0.073,0.0821,0.0924,0.1024,0.1075,0.1131,0.1145,0.1128,0.0971,0.081,0.0552,0.0317,0.0097,-0.0074,-0.0147,-0.0146,-0.0156,-0.0139,-0.0166,-0.0159,-0.0217,-0.0216,-0.0216,-0.0216,0,0.0556,0.0603,0.0687,0.0792,0.0909,0.1018,0.1067,0.1134,0.1192,0.1215,0.1204,0.1026,0.0921,0.0595,0.038,0.0161,0.0095,0.001,0.0001,0.0002,0.0084,0.0138,0.0121,0,0,0,0,0,0.0587,0.0643,0.0741,0.0858,0.0971,0.1046,0.116,0.1194,0.1245,0.1248,0.1231,0.1079,0.0769,0.0633,0.0414,0.0336,0.0042,0.0067,-0.0065,-0.0237,-0.0232,-0.0173,0,0,0,0,0,0,0.061,0.0699,0.0742,0.0894,0.0981,0.1117,0.1194,0.1229,0.1226,0.1237,0.1078,0.101,0.0707,0.09,0.0407,0.0341,0.0222,-0.0073,-0.0079,-0.0239,-0.0235,-0.0232,-0.017,0,0,0,0,0]}]]